Vertical_Velocity
0 -1 5 -0 -1 0 -3 -3 1 -1 -1 -3 -4 -0 -4 7 -6 0 6 -1 -2 -0 4 -3 2 -5 -5 3 -5 -2 -18 1 5 2 31 18 -6 9 -4 -6 -0 -7 2 -3 2
-6 -3 0 -0 -0 -1 0 -3 -2 -1 -2 -3 -1 2 -2 4 -2 -5 3 -1 -2 0 -0 5 3 -9 -3 5 -4 -14 -20 7 13 9 4 2 4 -0 -12 -8 -7 -0 0 -0 7
1 -3 -4 -5 2 3 0 1 -3 -2 0 -2 -1 3 -2 0 4 -2 2 -1 -2 2 2 -2 -2 -8 1 0 1 -2 -9 8 10 11 6 13 -1 2 -3 -2 -3 -1 -0 -3 3
-5 -1 2 1 -1 -2 2 -0 0 -1 -1 -4 1 -0 -0 -4 -5 9 1 -2 -4 0 2 -1 -1 -3 -0 -7 3 -22 -5 1 12 4 8 -3 10 -1 -2 -3 -2 -1 -1 2 -3
1 1 0 -0 1 2 -1 -0 2 1 0 -1 -0 1 -6 1 -9 14 4 3 -3 3 3 -4 -2 -8 -0 -5 -13 -11 15 -6 -2 8 -1 9 -2 -1 -4 -3 -0 -1 -1 2 2
-2 -1 -1 -0 -2 0 3 1 1 1 3 -1 2 0 -1 -6 -3 -6 9 -3 -3 4 -6 -3 -8 -8 -3 -2 -7 7 -1 -2 -3 9 0 -5 -4 -12 -5 0 -4 -2 -2 1 0
2 4 1 2 0 -3 -0 3 -2 -2 3 1 -1 5 3 -3 4 -4 1 -3 -5 2 -2 -4 -9 -7 -4 -3 3 5 -13 -0 -2 11 -6 1 -13 -10 11 -1 1 -7 -3 5 2
3 3 4 -1 -2 2 -1 3 -2 -4 -3 5 -3 6 -2 11 2 3 -2 -4 -2 -0 6 -8 -8 -3 -5 2 -0 -4 -9 -5 19 8 13 5 -7 3 14 6 5 -1 2 4 1
4 -3 6 -3 -2 -0 -3 2 -1 -2 -1 -0 -0 2 -4 4 2 -1 0 -1 7 -1 4 -5 -10 -7 -1 1 -3 -5 -5 -3 6 8 16 5 -3 24 11 0 -1 2 -1 6 -1
-1 -0 2 -4 -0 0 -5 2 -3 2 2 -1 5 2 -4 -2 2 -2 -3 3 3 -1 -1 -3 -7 -2 0 -2 0 -0 -4 -1 -6 21 5 5 5 -16 -11 3 4 4 3 2 0
1 -1 -1 -6 -0 0 -10 7 0 -4 0 2 1 6 -7 -3 7 -6 7 -2 -4 -2 -2 -2 -7 2 1 -6 1 -1 -4 -2 8 14 0 -1 -5 3 -1 -4 -3 -1 2 2 3
3 1 -1 -4 -2 -4 -2 6 4 -8 9 -7 -0 16 -2 -4 2 3 -2 2 2 -4 -1 0 0 -2 2 -2 -3 -2 -1 2 3 12 -3 -7 -5 6 -2 -1 -3 -1 -0 -1 -1
-1 -0 -1 -6 -2 -7 4 -5 7 -8 -6 3 4 -0 0 -5 1 -10 -3 -2 2 -1 -1 3 -8 -0 -3 1 0 0 -0 8 -5 -7 -0 -4 -13 -2 -5 -3 -0 -1 4 -1 -1
4 1 -2 1 1 -6 4 -4 1 -0 -13 21 -5 -1 -3 1 0 -6 -4 -4 4 0 -2 2 -9 -0 -4 1 0 1 -0 2 -6 4 -15 -7 -11 -6 -5 -6 -13 -2 -0 2 1
1 -0 -5 5 -4 0 2 -3 3 -0 -23 3 5 1 -1 -0 2 -3 -4 -0 -6 5 0 -4 -2 -2 3 2 -7 0 -6 -3 -8 1 -5 1 -14 12 -5 -7 -5 -0 1 -5 3
-0 3 -5 4 -5 1 2 -4 -1 -2 -8 -8 4 1 3 0 -3 2 -3 0 -5 5 -1 -4 -0 -4 -0 -3 -4 7 -2 9 2 -2 -13 11 -11 6 -0 9 -0 2 -3 -9 -2
-1 4 -5 1 -8 -1 -5 -1 -8 -13 8 -6 -1 -4 8 -1 -3 3 0 -1 -4 4 -7 -1 -2 0 -2 -3 -1 -1 4 2 -5 -6 -15 12 -14 15 -0 1 3 -2 1 -1 -2
-0 1 9 -7 -7 3 1 -2 -14 9 30 -19 -11 -5 12 -1 -2 -1 3 -2 -2 1 -4 0 4 -1 3 -5 -1 2 3 10 5 -1 -10 9 -28 -4 43 7 2 -9 -1 3 -10
-2 -8 22 -21 -3 -2 -2 -12 4 23 -2 10 -9 -2 11 4 -6 -4 1 -3 1 -3 0 -3 4 -1 -0 -10 -1 0 -4 14 4 1 -1 3 -8 27 -5 -5 3 -6 -4 2 -12
-0 -3 1 -4 -5 -5 -11 -6 -4 11 16 6 2 -7 3 -0 2 -1 -3 3 -2 2 -2 -2 8 1 -0 0 -0 8 6 -2 -3 6 -2 2 10 -1 8 14 -9 -5 -16 -3 0
-2 1 -16 3 -1 -8 -8 -6 -10 16 6 -11 6 14 8 -4 5 -1 -6 -0 -0 -0 -5 2 3 -6 2 5 -5 4 2 -1 12 2 -2 1 5 -13 -5 -13 -2 -7 -10 -7 -4
-5 7 -3 -4 -5 -3 -1 1 -2 12 9 1 3 1 8 -2 2 6 -5 -1 1 -2 -4 -1 1 2 4 1 1 5 7 -3 1 5 2 1 20 -7 1 -0 0 -5 -0 -1 -1
-7 12 -5 4 -8 6 3 5 -7 9 26 4 -2 1 4 13 3 -0 -2 3 4 -1 -1 2 0 5 1 2 0 -2 0 2 3 5 -2 -1 15 19 4 -11 1 -8 -7 1 -2
-7 1 -2 8 10 6 8 7 3 5 17 2 3 1 4 19 2 4 9 -0 3 -1 -2 -2 1 1 3 1 2 -1 -3 -0 4 1 4 -2 5 14 30 14 0 4 3 -1 2
-3 6 -6 5 -1 0 0 4 4 3 10 -1 5 2 8 -1 6 -2 2 -3 -3 -3 -1 -0 2 -1 4 5 -3 -4 9 -3 -9 11 -6 6 -3 3 27 24 45 -2 4 1 15
2 -4 -2 2 0 2 0 12 14 1 6 -0 -3 -0 -1 -1 -13 -1 4 2 -4 1 2 7 3 -3 3 4 -1 -2 -1 -5 -0 -2 -1 -0 1 -0 14 -6 8 24 3 6 3
4 -4 -1 1 -1 1 4 2 -3 -8 13 20 5 -4 -1 -3 -3 1 4 0 3 -4 0 2 1 -1 4 -1 0 -3 5 3 8 13 11 1 13 6 7 10 -3 7 31 21 14
Height
5771 5771 5769 5768 5769 5769 5768 5767 5767 5766 5767 5768 5768 5767 5767 5766 5765 5766 5766 5767 5766 5766 5766 5765 5763 5761 5761 5758 5756 5755 5755 5759 5761 5768 5777 5767 5768 5767 5770 5770 5770 5771 5770 5772 5772
5763 5761 5759 5757 5757 5757 5756 5756 5756 5756 5756 5757 5758 5757 5758 5757 5756 5757 5758 5757 5757 5757 5757 5755 5754 5753 5753 5748 5745 5741 5746 5749 5757 5760 5765 5759 5759 5758 5758 5760 5761 5764 5766 5768 5768
5748 5747 5747 5748 5745 5744 5745 5744 5745 5745 5745 5746 5747 5748 5748 5748 5748 5748 5748 5748 5749 5748 5747 5746 5745 5745 5744 5738 5732 5732 5736 5742 5746 5751 5754 5755 5752 5751 5751 5753 5756 5758 5760 5761 5762
5737 5735 5733 5733 5732 5734 5732 5733 5734 5735 5734 5736 5737 5737 5739 5740 5740 5739 5739 5739 5739 5739 5737 5737 5735 5735 5733 5728 5723 5722 5727 5732 5739 5740 5741 5747 5746 5744 5744 5748 5750 5752 5756 5756 5756
5722 5721 5720 5718 5718 5718 5719 5719 5719 5722 5724 5724 5726 5727 5729 5729 5729 5731 5729 5728 5729 5729 5727 5727 5726 5723 5721 5718 5714 5713 5719 5721 5728 5730 5734 5738 5735 5737 5737 5743 5744 5747 5749 5750 5750
5710 5708 5708 5706 5704 5704 5705 5707 5707 5708 5711 5713 5714 5715 5717 5718 5718 5719 5720 5718 5718 5718 5716 5717 5715 5713 5710 5708 5704 5707 5710 5714 5717 5722 5726 5726 5730 5730 5737 5739 5737 5742 5743 5745 5746
5695 5694 5693 5693 5691 5691 5693 5694 5696 5697 5700 5702 5703 5705 5705 5706 5707 5709 5710 5709 5708 5708 5705 5706 5705 5703 5700 5698 5697 5698 5702 5705 5710 5715 5719 5722 5723 5726 5736 5734 5734 5735 5738 5741 5741
5683 5682 5682 5680 5679 5680 5680 5682 5683 5685 5689 5692 5693 5695 5694 5696 5698 5698 5699 5700 5699 5699 5697 5696 5696 5694 5691 5689 5689 5690 5693 5697 5705 5708 5716 5714 5715 5726 5731 5730 5732 5733 5737 5736 5734
5671 5671 5670 5670 5670 5670 5670 5671 5673 5675 5678 5681 5684 5685 5686 5687 5687 5687 5689 5689 5690 5689 5688 5686 5687 5685 5681 5679 5680 5682 5686 5689 5694 5702 5708 5705 5710 5722 5723 5723 5725 5728 5731 5733 5731
5661 5660 5660 5659 5660 5661 5661 5664 5664 5665 5668 5670 5674 5677 5677 5677 5677 5678 5679 5680 5680 5679 5678 5678 5677 5677 5674 5672 5671 5676 5679 5683 5689 5698 5697 5700 5705 5711 5710 5715 5719 5722 5726 5727 5727
5652 5651 5651 5651 5652 5652 5654 5658 5657 5659 5659 5661 5663 5666 5665 5667 5668 5668 5670 5670 5670 5670 5671 5670 5670 5670 5666 5663 5665 5670 5672 5675 5683 5689 5688 5693 5698 5704 5706 5706 5711 5715 5718 5721 5722
5642 5641 5640 5641 5642 5643 5646 5648 5648 5649 5653 5651 5653 5656 5656 5656 5659 5660 5661 5661 5660 5661 5661 5661 5663 5661 5658 5655 5655 5661 5664 5669 5676 5683 5681 5687 5690 5695 5696 5699 5705 5708 5712 5714 5717
5634 5633 5633 5633 5633 5634 5636 5636 5637 5639 5640 5646 5644 5645 5647 5649 5649 5651 5652 5652 5652 5652 5652 5652 5652 5651 5650 5647 5647 5651 5656 5664 5671 5675 5673 5681 5684 5689 5693 5696 5699 5703 5707 5709 5711
5626 5625 5625 5625 5625 5625 5628 5627 5627 5628 5630 5635 5637 5637 5638 5639 5641 5642 5643 5645 5645 5645 5644 5644 5643 5643 5641 5639 5640 5644 5651 5656 5663 5665 5666 5673 5677 5682 5685 5687 5691 5695 5700 5705 5707
5617 5616 5614 5616 5614 5615 5617 5618 5619 5621 5621 5622 5624 5627 5628 5631 5633 5632 5634 5635 5636 5637 5639 5638 5635 5634 5633 5631 5632 5638 5641 5648 5650 5653 5663 5668 5671 5678 5680 5683 5689 5692 5696 5699 5704
5607 5606 5604 5604 5604 5605 5606 5608 5610 5613 5612 5614 5615 5617 5619 5620 5623 5623 5625 5627 5628 5629 5631 5629 5628 5625 5625 5624 5624 5631 5635 5644 5648 5651 5651 5667 5667 5674 5678 5686 5686 5688 5690 5693 5697
5596 5594 5592 5590 5590 5594 5595 5598 5601 5602 5603 5603 5605 5607 5610 5610 5612 5615 5616 5617 5620 5621 5622 5623 5620 5620 5618 5618 5619 5623 5629 5637 5642 5644 5647 5662 5662 5670 5677 5680 5682 5683 5685 5688 5691
5584 5582 5580 5576 5577 5579 5582 5585 5588 5592 5592 5588 5595 5597 5600 5599 5605 5607 5609 5610 5611 5613 5614 5616 5616 5615 5613 5612 5614 5617 5624 5631 5634 5637 5645 5656 5652 5665 5677 5676 5675 5676 5681 5683 5687
5571 5568 5567 5562 5563 5566 5569 5572 5578 5581 5577 5579 5584 5587 5590 5592 5594 5596 5599 5601 5604 5606 5609 5610 5609 5609 5608 5607 5610 5613 5617 5628 5630 5634 5641 5648 5652 5664 5665 5667 5668 5673 5676 5677 5681
5556 5553 5549 5549 5549 5551 5553 5559 5564 5566 5566 5568 5572 5576 5579 5581 5585 5587 5588 5594 5597 5600 5601 5602 5604 5604 5604 5602 5607 5611 5615 5620 5623 5629 5633 5642 5648 5652 5658 5660 5662 5666 5670 5672 5675
5541 5539 5531 5531 5533 5534 5537 5543 5547 5551 5548 5553 5560 5567 5570 5571 5574 5577 5581 5584 5588 5593 5595 5597 5600 5599 5601 5600 5603 5606 5610 5615 5619 5624 5628 5635 5639 5642 5649 5650 5658 5660 5664 5670 5672
5523 5522 5512 5510 5515 5516 5521 5526 5530 5534 5533 5538 5547 5553 5559 5562 5566 5569 5572 5575 5580 5585 5588 5590 5594 5595 5597 5597 5600 5603 5607 5609 5613 5619 5625 5629 5635 5636 5641 5645 5648 5652 5655 5661 5666
5501 5498 5488 5491 5491 5500 5504 5509 5512 5519 5522 5526 5533 5539 5547 5555 5558 5561 5565 5569 5574 5579 5582 5584 5589 5591 5593 5595 5595 5598 5601 5605 5607 5612 5618 5626 5632 5631 5630 5636 5643 5645 5649 5653 5657
5480 5480 5477 5478 5483 5488 5493 5498 5503 5505 5510 5514 5523 5529 5536 5546 5549 5555 5557 5561 5566 5570 5574 5577 5581 5585 5588 5589 5591 5594 5595 5599 5602 5605 5611 5618 5626 5629 5626 5628 5635 5640 5641 5645 5649
5472 5472 5471 5473 5476 5479 5485 5492 5495 5498 5501 5505 5514 5520 5528 5533 5540 5545 5548 5554 5557 5562 5565 5569 5575 5578 5580 5583 5583 5588 5591 5594 5596 5600 5601 5611 5617 5619 5621 5624 5626 5630 5634 5638 5644
5466 5466 5466 5470 5472 5475 5479 5485 5488 5492 5496 5499 5505 5511 5516 5523 5530 5537 5541 5547 5551 5556 5559 5563 5568 5571 5574 5577 5578 5581 5585 5587 5590 5593 5595 5602 5608 5612 5612 5618 5623 5623 5628 5633 5636
5460 5461 5462 5466 5469 5472 5476 5478 5482 5487 5490 5495 5503 5507 5512 5518 5524 5531 5534 5539 5545 5549 5552 5556 5561 5564 5567 5570 5573 5578 5581 5582 5584 5588 5591 5594 5602 5603 5607 5613 5616 5624 5626 5627 5629